GW7930 Weather Reports


Display with metric or nautical units.
time (UTC)temp
F
wind
direction
speed
MPH
gust
MPH
rain 1hr
in
rain 24hr
in
rain mn
in
humidity
%
barometer
mb
20260831231229 0 0.0 0.0 0.00 0.00 0.00 1023.3
20260831230724 0 0.0 0.0 0.00 0.00 0.00 1023.4
20260831230219 0 0.0 0.0 0.00 0.00 0.00 1023.2
20260831225718 0 0.0 0.0 0.00 0.00 0.00 1023.4
20260831225213 0 0.0 0.0 0.00 0.00 0.00 1023.3
20260831224708 0 0.0 0.0 0.00 0.00 0.00 1023.4
20260831224204 0 0.0 0.0 0.00 0.00 0.00 1023.4
20260831223659 0 0.0 0.0 0.00 0.00 0.00 1023.6
20260831223155 65 240 3.0 3.0 0.00 0.00 0.00 83 1023.7
20260831222651 65 240 3.0 3.0 0.00 0.00 0.00 83 1023.7
20260831222146 65 241 4.0 5.0 0.00 0.00 0.00 83 1023.7
20260831221642 64 298 3.0 5.0 0.00 0.00 0.00 85 1023.7
20260831221137 0 0.0 0.0 0.00 0.00 0.00 1023.8
20260831220632 0 0.0 0.0 0.00 0.00 0.00 1023.9
20260831220127 0 0.0 0.0 0.00 0.00 0.00 1023.8
20260831215622 0 0.0 0.0 0.00 0.00 0.00 1024.3
20260831215118 64 248 2.0 3.0 0.00 0.00 0.00 85 1024.4
20260831214615 64 248 2.0 3.0 0.00 0.00 0.00 85 1024.4
20260831214111 64 203 0.0 0.0 0.00 0.00 0.00 84 1024.1
20260831213608 64 197 3.0 3.0 0.00 0.00 0.00 83 1024.4
20260831213103 64 169 3.0 3.0 0.00 0.00 0.00 84 1024.4
20260831212559 64 145 5.0 5.0 0.00 0.00 0.00 83 1024.4
20260831212055 64 166 7.0 9.0 0.00 0.00 0.00 82 1024.6
20260831211554 0 0.0 0.0 0.00 0.00 0.00 1024.5
20260831211054 0 0.0 0.0 0.00 0.00 0.00 1024.4
20260831210549 0 0.0 0.0 0.00 0.00 0.00 1024.4
20260831210045 66 95 13.0 16.0 0.00 0.00 0.00 73 1024.4
20260831205544 66 95 13.0 16.0 0.00 0.00 0.00 73 1024.3
20260831205041 69 94 12.0 14.0 0.00 0.00 0.00 59 1024.1
20260831204535 70 115 9.0 11.0 0.00 0.00 0.00 60 1024.1
20260831204034 74 147 2.0 3.0 0.00 0.00 0.00 44 1023.9
20260831203529 75 168 5.0 7.0 0.00 0.00 0.00 43 1023.7
20260831203028 75 180 7.0 8.0 0.00 0.00 0.00 44 1023.8
20260831202527 75 172 4.0 5.0 0.00 0.00 0.00 44 1023.7
20260831202027 0 0.0 0.0 0.00 0.00 0.00 1024.1
20260831201526 0 0.0 0.0 0.00 0.00 0.00 1024.0
20260831201022 0 0.0 0.0 0.00 0.00 0.00 1023.8
20260831200518 0 0.0 0.0 0.00 0.00 0.00 1023.6
20260831200017 0 0.0 0.0 0.00 0.00 0.00 1023.6
20260831195513 0 0.0 0.0 0.00 0.00 0.00 1023.6
20260831195013 0 0.0 0.0 0.00 0.00 0.00 1023.4
20260831194508 75 195 5.0 7.0 0.00 0.00 0.00 43 1023.3
20260831194008 75 195 5.0 7.0 0.00 0.00 0.00 43 1023.6
20260831193504 75 197 8.0 10.0 0.00 0.00 0.00 43 1023.6
20260831192958 76 212 12.0 14.0 0.00 0.00 0.00 41 1023.6
20260831192453 76 212 12.0 14.0 0.00 0.00 0.00 41 1023.6
20260831191948 76 220 7.0 8.0 0.00 0.00 0.00 41 1023.3
20260831191444 76 242 7.0 10.0 0.00 0.00 0.00 41 1023.3
20260831190941 76 242 7.0 10.0 0.00 0.00 0.00 41 1023.3
20260831190435 76 214 10.0 14.0 0.00 0.00 0.00 41 1023.2
20260831185934 78 193 7.0 10.0 0.00 0.00 0.00 41 1023.3
20260831185430 76 204 9.0 10.0 0.00 0.00 0.00 42 1023.2
20260831184925 76 194 11.0 14.0 0.00 0.00 0.00 42 1023.4
20260831184425 0 0.0 0.0 0.00 0.00 0.00 1023.4
20260831183920 0 0.0 0.0 0.00 0.00 0.00 1023.7
20260831183420 0 0.0 0.0 0.00 0.00 0.00 1023.7
20260831182919 76 186 8.0 10.0 0.00 0.00 0.00 43 1023.6
20260831182415 76 186 8.0 10.0 0.00 0.00 0.00 43 1023.6
20260831181910 0 0.0 0.0 0.00 0.00 0.00 1023.8
20260831181405 75 198 5.0 6.0 0.00 0.00 0.00 45 1023.7
20260831180900 75 198 5.0 6.0 0.00 0.00 0.00 45 1023.7
20260831180400 75 187 3.0 5.0 0.00 0.00 0.00 44 1023.7
20260831175859 75 226 3.0 3.0 0.00 0.00 0.00 45 1024.0
20260831175356 75 174 3.0 3.0 0.00 0.00 0.00 45 1024.0
20260831174852 74 188 3.0 3.0 0.00 0.00 0.00 45 1024.3
20260831174347 74 196 3.0 3.0 0.00 0.00 0.00 45 1024.1
20260831173845 74 218 3.0 3.0 0.00 0.00 0.00 45 1024.1
20260831173340 74 268 2.0 2.0 0.00 0.00 0.00 44 1024.3
20260831172835 74 247 3.0 3.0 0.00 0.00 0.00 46 1024.1
20260831172331 74 290 3.0 5.0 0.00 0.00 0.00 45 1024.3
20260831171830 0 0.0 0.0 0.00 0.00 0.00 1024.3
20260831171327 73 198 1.0 2.0 0.00 0.00 0.00 49 1024.3
20260831170823 73 198 1.0 2.0 0.00 0.00 0.00 49 1024.5
20260831170319 72 213 1.0 2.0 0.00 0.00 0.00 50 1024.4
20260831165816 0 0.0 0.0 0.00 0.00 0.00 1024.3
20260831165312 0 0.0 0.0 0.00 0.00 0.00 1024.1
20260831164808 0 0.0 0.0 0.00 0.00 0.00 1024.4
20260831164304 0 0.0 0.0 0.00 0.00 0.00 1024.3
20260831163759 0 0.0 0.0 0.00 0.00 0.00 1024.4
20260831163254 0 0.0 0.0 0.00 0.00 0.00 1024.4
20260831162753 0 0.0 0.0 0.00 0.00 0.00 1024.1
20260831162248 0 0.0 0.0 0.00 0.00 0.00 1024.5
20260831161742 66 199 1.0 1.0 0.00 0.00 0.00 59 1024.4
20260831161238 66 199 1.0 1.0 0.00 0.00 0.00 59 1024.5
20260831160738 66 215 1.0 1.0 0.00 0.00 0.00 59 1024.1
20260831160233 66 198 2.0 3.0 0.00 0.00 0.00 59 1024.1
20260831155732 65 229 1.0 1.0 0.00 0.00 0.00 60 1024.1
20260831155228 65 205 0.0 1.0 0.00 0.00 0.00 61 1024.0
20260831154724 65 193 1.0 1.0 0.00 0.00 0.00 60 1024.1
20260831154220 65 204 1.0 1.0 0.00 0.00 0.00 60 1023.9
20260831153719 65 197 1.0 1.0 0.00 0.00 0.00 58 1023.8
20260831153214 65 204 0.0 0.0 0.00 0.00 0.00 60 1023.6
20260831152710 65 205 0.0 0.0 0.00 0.00 0.00 58 1023.6
20260831152206 65 219 0.0 0.0 0.00 0.00 0.00 58 1023.7
20260831151706 65 205 0.0 0.0 0.00 0.00 0.00 59 1023.6
20260831151200 65 202 0.0 1.0 0.00 0.00 0.00 60 1023.7
20260831150655 65 204 0.0 0.0 0.00 0.00 0.00 58 1023.6
20260831150151 65 214 0.0 0.0 0.00 0.00 0.00 59 1023.4
20260831145650 64 202 0.0 0.0 0.00 0.00 0.00 60 1023.6
20260831145147 64 207 0.0 0.0 0.00 0.00 0.00 61 1023.7
20260831144642 64 197 0.0 0.0 0.00 0.00 0.00 61 1023.6
20260831144138 64 205 0.0 0.0 0.00 0.00 0.00 61 1023.9
20260831143637 63 202 0.0 0.0 0.00 0.00 0.00 61 1023.8
20260831143132 62 207 0.0 0.0 0.00 0.00 0.00 63 1023.8
20260831142629 62 196 0.0 0.0 0.00 0.00 0.00 63 1023.8
20260831142124 62 258 1.0 1.0 0.00 0.00 0.00 64 1024.0
20260831141623 62 215 0.0 0.0 0.00 0.00 0.00 64 1023.8
20260831141118 62 242 1.0 2.0 0.00 0.00 0.00 63 1023.8
20260831140617 62 242 1.0 2.0 0.00 0.00 0.00 63 1023.7
20260831140113 62 244 2.0 2.0 0.00 0.00 0.00 63 1024.0
20260831135610 62 233 1.0 2.0 0.00 0.00 0.00 64 1023.8
20260831135106 63 223 1.0 2.0 0.00 0.00 0.00 64 1023.8
20260831134602 62 205 0.0 0.0 0.00 0.00 0.00 66 1023.6
20260831134101 60 208 0.0 0.0 0.00 0.00 0.00 69 1023.7
20260831133601 59 205 0.0 0.0 0.00 0.00 0.00 70 1023.6
20260831133056 59 202 0.0 0.0 0.00 0.00 0.00 72 1023.7
20260831132553 59 201 0.0 0.0 0.00 0.00 0.00 72 1023.4
20260831132051 58 191 0.0 1.0 0.00 0.00 0.00 73 1023.4
20260831131546 57 202 0.0 0.0 0.00 0.00 0.00 74 1023.2
20260831131042 56 206 0.0 0.0 0.00 0.00 0.00 76 1023.3
20260831130537 56 205 0.0 0.0 0.00 0.00 0.00 78 1023.1
20260831130033 55 209 0.0 0.0 0.00 0.00 0.00 78 1023.1
20260831125532 55 206 0.0 0.0 0.00 0.00 0.00 79 1022.8
20260831125027 55 201 0.0 0.0 0.00 0.00 0.00 78 1023.0
20260831124524 55 214 0.0 0.0 0.00 0.00 0.00 77 1023.0
20260831124020 55 200 0.0 0.0 0.00 0.00 0.00 77 1022.8
20260831123519 56 151 2.0 2.0 0.00 0.00 0.00 76 1022.7
20260831123014 56 151 3.0 3.0 0.00 0.00 0.00 76 1022.5
20260831122513 56 170 2.0 2.0 0.00 0.00 0.00 77 1023.0
20260831122009 56 196 0.0 0.0 0.00 0.00 0.00 76 1022.8
20260831121504 57 202 0.0 0.0 0.00 0.00 0.00 75 1023.0
20260831121000 57 225 0.0 0.0 0.00 0.00 0.00 75 1022.8
20260831120459 55 207 0.0 1.0 0.00 0.00 0.00 79 1023.0
20260831120000 56 199 0.0 0.0 0.00 0.00 0.00 80 1023.0
20260831115456 56 251 1.0 1.0 0.00 0.00 0.00 79 1022.7
20260831114956 56 203 0.0 0.0 0.00 0.00 0.00 80 1022.7
20260831114455 55 209 0.0 1.0 0.00 0.00 0.00 80 1023.1
20260831113951 55 245 1.0 2.0 0.00 0.00 0.00 79 1023.2
20260831113450 55 194 0.0 0.0 0.00 0.00 0.00 78 1023.0
20260831112946 55 203 0.0 0.0 0.00 0.00 0.00 78 1023.2
20260831112445 56 204 0.0 0.0 0.00 0.00 0.00 78 1023.1
20260831111940 55 200 0.0 0.0 0.00 0.00 0.00 78 1023.0
20260831111436 56 203 0.0 0.0 0.00 0.00 0.00 77 1023.1
20260831110932 56 186 0.0 0.0 0.00 0.00 0.00 77 1022.8
20260831110427 56 200 0.0 0.0 0.00 0.00 0.00 77 1023.1
20260831105926 56 191 0.0 0.0 0.00 0.00 0.00 78 1023.2
20260831105421 56 178 1.0 1.0 0.00 0.00 0.00 77 1023.1
20260831104916 56 186 0.0 0.0 0.00 0.00 0.00 78 1023.2
20260831104412 56 188 0.0 0.0 0.00 0.00 0.00 79 1023.1
20260831103908 56 203 0.0 0.0 0.00 0.00 0.00 79 1023.2
20260831103403 56 233 1.0 1.0 0.00 0.00 0.00 77 1023.4
20260831102904 56 211 0.0 0.0 0.00 0.00 0.00 78 1023.7
20260831102403 56 219 0.0 0.0 0.00 0.00 0.00 77 1023.6
20260831101859 57 202 0.0 0.0 0.00 0.00 0.00 78 1023.4
20260831101354 57 205 0.0 0.0 0.00 0.00 0.00 78 1023.3
20260831100850 57 205 0.0 0.0 0.00 0.00 0.00 75 1023.4
20260831100346 57 143 3.0 3.0 0.00 0.00 0.00 75 1023.4
20260831095845 57 179 1.0 2.0 0.00 0.00 0.00 78 1023.6
20260831095345 57 188 0.0 0.0 0.00 0.00 0.00 77 1023.4
20260831094840 57 203 0.0 0.0 0.00 0.00 0.00 76 1023.2
20260831094336 58 213 0.0 0.0 0.00 0.00 0.00 76 1023.1
20260831093832 57 205 0.0 0.0 0.00 0.00 0.00 77 1023.3
20260831093327 57 215 0.0 0.0 0.00 0.00 0.00 79 1022.8
20260831092823 57 203 0.0 0.0 0.00 0.00 0.00 78 1023.1
20260831092319 57 203 0.0 0.0 0.00 0.00 0.00 78 1023.0
20260831091814 57 203 0.0 0.0 0.00 0.00 0.00 77 1023.1
20260831091309 57 210 0.0 0.0 0.00 0.00 0.00 75 1023.0
20260831090804 57 184 0.0 1.0 0.00 0.00 0.00 75 1023.0
20260831090300 57 200 1.0 1.0 0.00 0.00 0.00 78 1023.2
20260831085756 57 197 0.0 1.0 0.00 0.00 0.00 77 1023.0
20260831085251 57 201 0.0 0.0 0.00 0.00 0.00 79 1023.0
20260831084745 57 202 0.0 0.0 0.00 0.00 0.00 79 1022.7
20260831084242 57 205 0.0 0.0 0.00 0.00 0.00 79 1022.8
20260831083738 57 206 0.0 0.0 0.00 0.00 0.00 79 1022.8
20260831083233 57 203 0.0 0.0 0.00 0.00 0.00 80 1023.0
20260831082732 57 203 0.0 0.0 0.00 0.00 0.00 79 1023.2
20260831082227 57 243 1.0 2.0 0.00 0.00 0.00 80 1023.1
20260831081723 57 229 1.0 1.0 0.00 0.00 0.00 80 1023.0
20260831081218 57 194 0.0 0.0 0.00 0.00 0.00 81 1023.1
20260831080714 57 201 0.0 0.0 0.00 0.00 0.00 81 1023.3
20260831080213 57 214 0.0 0.0 0.00 0.00 0.00 81 1023.3
20260831075710 56 208 0.0 0.0 0.00 0.00 0.00 81 1023.2
20260831075205 57 214 0.0 1.0 0.00 0.00 0.00 81 1023.4
20260831074704 57 235 2.0 2.0 0.00 0.00 0.00 81 1023.4
20260831074204 56 214 1.0 1.0 0.00 0.00 0.00 81 1023.4
20260831073659 57 212 0.0 0.0 0.00 0.00 0.00 81 1023.2
20260831073159 56 214 0.0 1.0 0.00 0.00 0.00 81 1023.4
20260831072654 57 257 3.0 3.0 0.00 0.00 0.00 80 1023.3
20260831072151 57 209 0.0 1.0 0.00 0.00 0.00 80 1023.3
20260831071649 57 206 0.0 0.0 0.00 0.00 0.00 78 1023.6
20260831071144 57 206 0.0 0.0 0.00 0.00 0.00 78 1023.2
20260831070639 57 210 0.0 0.0 0.00 0.00 0.00 78 1023.4
20260831070133 57 200 0.0 0.0 0.00 0.00 0.00 78 1023.6
20260831065632 57 190 0.0 0.0 0.00 0.00 0.00 77 1023.4
20260831065131 57 153 2.0 2.0 0.00 0.00 0.00 78 1023.6
20260831064626 57 133 2.0 2.0 0.00 0.00 0.00 78 1023.4
20260831064121 56 184 0.0 0.0 0.00 0.00 0.00 78 1023.6
20260831063617 56 202 0.0 0.0 0.00 0.00 0.00 78 1023.3
20260831063112 57 196 0.0 0.0 0.00 0.00 0.00 79 1023.6
20260831062607 56 202 0.0 0.0 0.00 0.00 0.00 79 1023.6
20260831062106 56 193 0.0 0.0 0.00 0.00 0.00 77 1023.4
20260831061604 57 207 0.0 0.0 0.00 0.00 0.00 77 1023.3
20260831061101 57 208 0.0 0.0 0.00 0.00 0.00 76 1023.4
20260831060557 57 196 0.0 0.0 0.00 0.00 0.00 75 1023.7
20260831060057 58 200 0.0 0.0 0.00 0.00 0.00 76 1023.8
20260831055556 57 199 0.0 0.0 0.00 0.00 0.00 77 1023.6
20260831055052 58 197 0.0 0.0 0.00 0.00 0.00 75 1023.7
20260831054551 58 190 0.0 0.0 0.00 0.00 0.00 76 1023.6
20260831054051 59 203 0.0 0.0 0.00 0.00 0.00 78 1023.6
20260831053549 59 199 0.0 0.0 0.00 0.00 0.00 77 1023.8
20260831053044 59 209 0.0 0.0 0.00 0.00 0.00 77 1023.7
20260831052543 59 214 0.0 0.0 0.00 0.00 0.00 75 1023.7
20260831052044 60 196 0.0 0.0 0.00 0.00 0.00 74 1023.7
20260831051542 60 197 0.0 0.0 0.00 0.00 0.00 75 1023.7
20260831051041 60 208 0.0 0.0 0.00 0.00 0.00 75 1023.7
20260831050541 61 198 0.0 0.0 0.00 0.00 0.00 74 1023.7
20260831050039 61 197 0.0 0.0 0.00 0.00 0.00 74 1023.7
20260831045539 62 166 2.0 2.0 0.00 0.00 0.00 73 1023.6
20260831045035 61 171 3.0 3.0 0.00 0.00 0.00 74 1024.0
20260831044530 61 151 4.0 5.0 0.00 0.00 0.00 74 1024.3
20260831044025 61 170 1.0 2.0 0.00 0.00 0.00 75 1024.3
20260831043525 62 202 0.0 0.0 0.00 0.00 0.00 74 1024.1
20260831043021 62 195 0.0 0.0 0.00 0.00 0.00 74 1024.3
20260831042520 62 169 0.0 0.0 0.00 0.00 0.00 74 1024.1
20260831042015 62 193 2.0 2.0 0.00 0.00 0.00 74 1024.4
20260831041510 62 195 4.0 5.0 0.00 0.00 0.00 74 1024.4
20260831041009 61 208 3.0 3.0 0.00 0.00 0.00 75 1024.3
20260831040504 61 194 2.0 2.0 0.00 0.00 0.00 75 1024.4
20260831040003 61 205 2.0 2.0 0.00 0.00 0.00 75 1024.4
20260831035501 62 208 0.0 1.0 0.00 0.00 0.00 75 1024.3
20260831034957 62 197 1.0 1.0 0.00 0.00 0.00 75 1024.5
20260831034451 62 201 0.0 1.0 0.00 0.00 0.00 74 1023.8
20260831033946 62 226 3.0 3.0 0.00 0.00 0.00 74 1024.0
20260831033442 62 231 1.0 2.0 0.00 0.00 0.00 74 1024.1
20260831032937 62 211 4.0 5.0 0.00 0.00 0.00 74 1023.9
20260831032437 62 202 2.0 3.0 0.00 0.00 0.00 73 1023.9
20260831031933 63 199 4.0 6.0 0.00 0.00 0.00 73 1023.6
20260831031432 63 220 2.0 2.0 0.00 0.00 0.00 70 1023.7
20260831030931 63 278 3.0 6.0 0.00 0.00 0.00 70 1023.2
20260831030431 64 263 4.0 6.0 0.00 0.00 0.00 68 1023.4
20260831025929 65 290 5.0 9.0 0.00 0.00 0.00 66 1023.3
20260831025429 65 272 7.0 8.0 0.00 0.00 0.00 64 1022.8
20260831024925 67 184 2.0 2.0 0.00 0.00 0.00 59 1022.7
20260831024424 67 185 1.0 2.0 0.00 0.00 0.00 60 1022.5
20260831023919 67 166 3.0 3.0 0.00 0.00 0.00 61 1022.4
20260831023417 66 128 2.0 2.0 0.00 0.00 0.00 61 1022.0
20260831022913 66 139 3.0 3.0 0.00 0.00 0.00 61 1022.1
20260831022411 66 122 4.0 5.0 0.00 0.00 0.00 61 1022.1
20260831021906 68 115 3.0 3.0 0.00 0.00 0.00 59 1021.9
20260831021405 69 152 4.0 5.0 0.00 0.00 0.00 56 1022.0
20260831020902 69 165 4.0 5.0 0.00 0.00 0.00 52 1021.8
20260831020401 69 180 1.0 1.0 0.00 0.00 0.00 53 1021.8
20260831015856 70 194 4.0 5.0 0.00 0.00 0.00 53 1021.7
20260831015352 69 188 3.0 3.0 0.00 0.00 0.00 53 1021.4
20260831014852 70 203 3.0 3.0 0.00 0.00 0.00 53 1021.6
20260831014347 70 195 5.0 7.0 0.00 0.00 0.00 52 1021.3
20260831013843 70 181 3.0 3.0 0.00 0.00 0.00 53 1021.6
20260831013338 71 262 3.0 5.0 0.00 0.00 0.00 52 1021.6
20260831012832 71 283 5.0 7.0 0.00 0.00 0.00 51 1021.3
20260831012328 72 265 4.0 6.0 0.00 0.00 0.00 50 1021.3
20260831011827 73 264 2.0 3.0 0.00 0.00 0.00 49 1021.4
20260831011322 74 206 4.0 5.0 0.00 0.00 0.00 49 1021.3
20260831010818 74 197 6.0 7.0 0.00 0.00 0.00 47 1020.9
20260831010318 75 188 3.0 3.0 0.00 0.00 0.00 44 1020.5
20260831005814 75 189 1.0 1.0 0.00 0.00 0.00 44 1020.3
20260831005309 75 212 1.0 1.0 0.00 0.00 0.00 45 1020.3
20260831004804 74 114 3.0 3.0 0.00 0.00 0.00 44 1020.0
20260831004300 74 191 1.0 1.0 0.00 0.00 0.00 46 1019.9
20260831003755 75 206 6.0 8.0 0.00 0.00 0.00 43 1020.0
20260831003252 74 171 3.0 5.0 0.00 0.00 0.00 44 1020.2
20260831002751 74 135 4.0 5.0 0.00 0.00 0.00 46 1020.2
20260831002250 74 117 4.0 5.0 0.00 0.00 0.00 46 1019.9
20260831001746 74 157 5.0 6.0 0.00 0.00 0.00 47 1020.3
20260831001242 74 161 3.0 3.0 0.00 0.00 0.00 47 1020.3
20260831000739 73 163 3.0 5.0 0.00 0.00 0.00 47 1020.5
20260831000241 74 187 1.0 1.0 0.00 0.00 0.00 48 1020.3
20260830235737 74 204 0.0 0.0 0.00 0.00 0.00 48 1020.5
20260830235232 73 214 1.0 1.0 0.00 0.00 0.00 49 1020.5
20260830234727 73 280 2.0 2.0 0.00 0.00 0.00 49 1020.4
20260830234223 72 319 5.0 6.0 0.00 0.00 0.00 51 1020.4
20260830233719 73 262 6.0 7.0 0.00 0.00 0.00 52 1020.2
20260830233214 73 302 4.0 5.0 0.00 0.00 0.00 55 1020.3
20260830232709 73 246 3.0 3.0 0.00 0.00 0.00 49 1020.5
20260830232205 73 195 2.0 2.0 0.00 0.00 0.00 49 1020.6
20260830231702 72 286 3.0 3.0 0.00 0.00 0.00 50 1020.3